Location: Devore Heights
(34.2372°N, 117.4156°W)
Time: 17:24:26
(UTC+00:00)

Tiros 1 despin weight - Pass Details

Date: 20 September 2024
Orbit: 572 x 614 km, 48.2° (Epoch: 12 October)

Event Time Altitude Azimuth Distance (km) Brightness Sun altitude
Exits shadow 11:01:06 14° 6° (N) 1,710 ? -31.9°
Drops below altitude 10° 11:02:44 10° 26° (NNE) 1,975 ? -31.6°
Sets 11:05:58 0° 50° (NE) 2,883 ? -31.0°
